Minot AFB, ND

2:54 AM CDT on August 24, 2017 (GMT -0500)
Minot Air Force Base

Weather History for KMIB - December, 2012

Change the Weather History Date:

Tuesday, December 25, 2012

  Actual Average Record
Temperature  
Mean Temperature -7 °F -  
Max Temperature 0 °F 18 °F 46 °F (1999)
Min Temperature -14 °F 3 °F -27 °F (1996)
Degree Days  
Heating Degree Days 72    
Moisture  
Dew Point -8 °F    
Average Humidity 80    
Maximum Humidity 85    
Minimum Humidity 76    
Precipitation  
Precipitation 0.00 in - - ()
Sea Level Pressure  
Sea Level Pressure 30.53 in    
Wind  
Wind Speed 10 mph (WSW)    
Max Wind Speed 21 mph    
Max Gust Speed -    
Visibility 8 miles    
Events Snow    
Averages and records for this station are not official NWS values.
T = Trace of Precipitation, MM = Missing Value Source: NWS Daily Summary

Daily Weather History Graph

Daily Weather History Graph

Search for Another Location

Airport or City:

Trip Planner

Search our weather history database for the weather conditions in past years. The results will help you decide how hot, cold, wet, or windy it might be!

Date:

Astronomy

Dec. 25, 2012 Rise Set
Actual Time 8:36 AM CST 4:55 PM CST
Civil Twilight 7:59 AM CST 5:32 PM CST
Nautical Twilight 7:19 AM CST 6:12 PM CST
Astronomical Twilight 6:41 AM CST 6:50 PM CST
Moon 3:08 PM CST (12/25) 6:06 AM CST (12/25)
Length of Visible Light 9h 33m
Length of Day
8h 19m
Waxing Gibbous, 94% of the Moon is Illuminated
Dec 25
Waxing Gibbous
Dec 28
Full
Jan 4
Last Quarter
Jan 11
New
Jan 18
First Quarter

Hourly Weather History & Observations

Time (CST) Temp. Windchill Dew Point Humidity Pressure Visibility Wind Dir Wind Speed Gust Speed Precip Events Conditions
12:55 AM -9.4 °F -30.6 °F -14.4 °F 78% 30.54 in 10.0 mi WNW 13.8 mph - N/A   Clear
1:55 AM -8.5 °F -29.5 °F -13.5 °F 79% 30.55 in 10.0 mi WNW 13.8 mph - N/A   Clear
2:55 AM -10.3 °F -35.9 °F -15.5 °F 78% 30.56 in 10.0 mi NW 20.7 mph - N/A   Clear
3:03 AM -11.2 °F -35.8 °F -16.6 °F 77% 30.57 in 10.0 mi NW 18.4 mph - N/A   Partly Cloudy
3:10 AM -11.2 °F -35.8 °F -16.6 °F 77% 30.57 in 8.0 mi NW 18.4 mph - N/A   Partly Cloudy
3:12 AM -11.2 °F -36.4 °F -16.6 °F 77% 30.57 in 8.0 mi NW 19.6 mph - N/A   Partly Cloudy
3:55 AM -11.2 °F -37.0 °F -16.4 °F 78% 30.58 in 10.0 mi NW 20.7 mph - N/A   Clear
4:08 AM -11.2 °F -36.4 °F -16.6 °F 77% 30.58 in 10.0 mi NW 19.6 mph - N/A   Partly Cloudy
4:55 AM -12.3 °F -37.2 °F -17.9 °F 76% 30.60 in 10.0 mi NW 18.4 mph - N/A   Clear
5:55 AM -13.7 °F -36.9 °F -19.3 °F 76% 30.60 in 10.0 mi WNW 15.0 mph - N/A   Clear
6:16 AM -14.8 °F -38.3 °F -20.2 °F 77% 30.62 in 10.0 mi WNW 15.0 mph - N/A   Partly Cloudy
6:55 AM -13.0 °F -36.0 °F -18.6 °F 76% 30.62 in 10.0 mi WNW 15.0 mph - N/A   Scattered Clouds
7:55 AM -11.2 °F -33.7 °F -16.4 °F 78% 30.61 in 10.0 mi WNW 15.0 mph - N/A   Scattered Clouds
7:56 AM -11.2 °F -33.7 °F -16.6 °F 77% 30.61 in 10.0 mi WNW 15.0 mph - N/A   Mostly Cloudy
8:55 AM -13.0 °F -33.4 °F -18.2 °F 77% 30.61 in 10.0 mi NW 11.5 mph - N/A   Clear
9:55 AM -11.4 °F -26.7 °F -17.0 °F 76% 30.62 in 10.0 mi WNW 6.9 mph - N/A   Scattered Clouds
10:55 AM -6.0 °F -25.5 °F -11.6 °F 77% 30.61 in 10.0 mi NNW 12.7 mph - N/A   Overcast
11:55 AM -4.9 °F -23.2 °F -10.5 °F 77% 30.61 in 10.0 mi NW 11.5 mph - N/A   Overcast
12:55 PM -3.6 °F -19.7 °F -9.4 °F 76% 30.57 in 10.0 mi NW 9.2 mph - N/A   Overcast
1:55 PM -1.5 °F -16.0 °F -7.2 °F 77% 30.54 in 10.0 mi WNW 8.1 mph - N/A   Overcast
2:55 PM -0.6 °F -10.6 °F -6.5 °F 76% 30.53 in 10.0 mi NNW 4.6 mph - N/A   Mostly Cloudy
3:55 PM -0.9 °F -8.9 °F -6.7 °F 77% 30.53 in 10.0 mi NNW 3.5 mph - N/A   Clear
4:22 PM -0.4 °F -10.4 °F -5.8 °F 78% 30.53 in 8.0 mi NNW 4.6 mph - N/A Snow Light Snow
4:55 PM -0.6 °F - -5.6 °F 79% 30.53 in 6.0 mi Calm Calm - 0.00 in Snow Light Snow
5:01 PM -0.4 °F - -5.8 °F 78% 30.52 in 6.0 mi Calm Calm - N/A Snow Light Snow
5:27 PM -0.4 °F - -5.8 °F 78% 30.53 in 7.0 mi Calm Calm - N/A   Overcast
5:55 PM -0.6 °F - -5.1 °F 81% 30.52 in 6.0 mi Calm Calm - 0.00 in Snow Light Snow
6:01 PM -0.4 °F - -4.0 °F 85% 30.52 in 7.0 mi Calm Calm - N/A   Overcast
6:03 PM -0.4 °F - -4.0 °F 85% 30.52 in 8.0 mi Calm Calm - N/A   Overcast
6:15 PM -0.4 °F - -5.8 °F 78% 30.52 in 8.0 mi Calm Calm - N/A Snow Light Snow
6:16 PM -0.4 °F - -5.8 °F 78% 30.52 in 8.0 mi Calm Calm - N/A Snow Light Snow
6:23 PM -0.4 °F - -4.0 °F 85% 30.52 in 10.0 mi Calm Calm - N/A Snow Light Snow
6:35 PM -0.4 °F - -4.0 °F 85% 30.52 in 7.0 mi Calm Calm - N/A Snow Light Snow
6:37 PM -0.4 °F - -5.8 °F 78% 30.52 in 8.0 mi Calm Calm - N/A Snow Light Snow
6:55 PM -0.8 °F - -4.9 °F 83% 30.51 in 10.0 mi Calm Calm - 0.00 in   Overcast
7:26 PM -0.4 °F -8.3 °F -4.0 °F 85% 30.51 in 4.0 mi SSW 3.5 mph - N/A   Haze
7:29 PM -0.4 °F -8.3 °F -4.0 °F 85% 30.51 in 4.0 mi SSW 3.5 mph - N/A   Haze
7:31 PM -0.4 °F -8.3 °F -4.0 °F 85% 30.51 in 4.0 mi SSW 3.5 mph - N/A Snow Light Snow
7:32 PM -0.4 °F -8.3 °F -5.8 °F 78% 30.51 in 4.0 mi SSW 3.5 mph - N/A Snow Light Snow
7:34 PM -0.4 °F -8.3 °F -5.8 °F 78% 30.51 in 5.0 mi South 3.5 mph - N/A Snow Light Snow
7:41 PM -0.4 °F -8.3 °F -5.8 °F 78% 30.51 in 9.0 mi South 3.5 mph - N/A Snow Light Snow
7:45 PM -0.4 °F -8.3 °F -5.8 °F 78% 30.51 in 10.0 mi South 3.5 mph - N/A Snow Light Snow
7:55 PM -1.1 °F -9.1 °F -5.3 °F 83% 30.51 in 10.0 mi South 3.5 mph - 0.00 in   Overcast
8:36 PM -0.4 °F -8.3 °F -5.8 °F 78% 30.50 in 10.0 mi South 3.5 mph - N/A   Overcast
8:55 PM -0.9 °F -8.9 °F -4.9 °F 83% 30.50 in 10.0 mi South 3.5 mph - 0.00 in Snow Light Snow
9:01 PM -0.4 °F -8.3 °F -4.0 °F 85% 30.50 in 10.0 mi South 3.5 mph - N/A Snow Light Snow
9:08 PM -0.4 °F -8.3 °F -4.0 °F 85% 30.49 in 8.0 mi South 3.5 mph - N/A   Overcast
9:09 PM -0.4 °F -8.3 °F -4.0 °F 85% 30.49 in 8.0 mi South 3.5 mph - N/A   Overcast
9:24 PM -0.4 °F -8.3 °F -4.0 °F 85% 30.49 in 10.0 mi South 3.5 mph - N/A Snow Light Snow
9:46 PM -0.4 °F - -4.0 °F 85% 30.49 in 8.0 mi Calm Calm - N/A Snow Light Snow
9:49 PM -0.4 °F -8.3 °F -4.0 °F 85% 30.49 in 8.0 mi SSE 3.5 mph - N/A Snow Light Snow
9:50 PM -0.4 °F -8.3 °F -4.0 °F 85% 30.49 in 8.0 mi SSE 3.5 mph - N/A Snow Light Snow
9:55 PM -0.4 °F -8.3 °F -4.4 °F 83% 30.48 in 8.0 mi South 3.5 mph - 0.00 in Snow Light Snow
10:14 PM -0.4 °F -8.3 °F -4.0 °F 85% 30.47 in 7.0 mi SE 3.5 mph - N/A Snow Light Snow
10:17 PM -0.4 °F -8.3 °F -4.0 °F 85% 30.46 in 8.0 mi SSE 3.5 mph - N/A Snow Light Snow
10:19 PM -0.4 °F -10.4 °F -4.0 °F 85% 30.46 in 8.0 mi SSE 4.6 mph - N/A Snow Light Snow
10:20 PM -0.4 °F -10.4 °F -4.0 °F 85% 30.46 in 8.0 mi SE 4.6 mph - N/A Snow Light Snow
10:55 PM -0.4 °F -8.3 °F -4.4 °F 83% 30.46 in 10.0 mi SSE 3.5 mph - 0.00 in   Overcast
11:09 PM -0.4 °F -8.3 °F -4.0 °F 85% 30.45 in 8.0 mi SE 3.5 mph - N/A   Overcast
11:23 PM -0.4 °F -10.4 °F -4.0 °F 85% 30.45 in 7.0 mi SE 4.6 mph - N/A Snow Light Snow
11:55 PM -2.0 °F -12.2 °F -6.0 °F 83% 30.45 in 10.0 mi South 4.6 mph - 0.00 in   Overcast